sat.trackr.live / text

‹ back to catalog

STARLINK-31456

NORAD 59007 · 2024-036K

PAYLOAD ACTIVE UNKNOWN

§ Identity

Operator
Country
US
Launch date
2024-02-23
Launch site
AFWTR
Launch vehicle
Mass (kg)
RCS (m²)

Purposes: comms

External: N2YO · Heavens-Above · Gunter

§ Orbital elements

Epoch: 2026-05-25T02:15:00.578880Z

Period
94.11 min
Inclination
53.1611°
Eccentricity
0.0001376
Mean motion
15.30196378 rev/d
Perigee alt
474.3 km
Apogee alt
476.2 km
Semi-major
6,853.4 km
B*
3.0637e-5
RAAN
83.0544°
Arg perigee
98.2065°
Mean anomaly
261.9092°
Rev number
12,702

§ Raw data

STARLINK-314561 59007U 24036K   26145.09375670  .00000548  00000+0  30637-4 0  99902 59007  53.1611  83.0544 0001376  98.2065 261.9092 15.30196378127025

JSON: /api/v1/satellites/59007 · /tle

For live sub-satellite position, see the globe view (requires WebGL).

§ Visibility from observer

Set your observer location to see the next 7 days of passes ≥ 10°. The values pass through the URL so the page stays shareable.

No JS? Fill the form by hand. The geolocation button needs JavaScript.